カタリナ彗星

C/2013 V4 ( Catalina )

English version
Home page
Updated on February 13, 2018

---------------------------------------------------------------------

・ プロフィール

発見日 2013年11月9日
発見光度 17.7等
発見者 R. E. Hill (Catalina Sky Survey)

・ 写真集

・ 軌道要素

Epoch 2015 Oct. 25.0 TT = JDT 2457320.5
T 2015 Oct. 7.60063 TT                                  MPCW
q   5.1854121            (2000.0)            P               Q
z  -0.0004973      Peri.   40.44926     +0.22786070     -0.60307991
 +/-0.0000002      Node    55.62129     +0.46389247     -0.62303031
e   1.0025786      Incl.   67.85538     +0.85608602     +0.49812434
From 2294 observations 2013 Oct. 23-2018 Jan. 18, mean residual 0".5.

・ 星図

・ 光度変化

        m1 = 5.0 + 5 logΔ + 10.0 log r

---------------------------------------------------------------------

軌道要素はM.P.E.C. 2018-B155に掲載されたものです。
星図はステラナビゲータ Ver.8 (アストロアーツ) で作成したものです。
光度グラフはComet for Windowsで作成したものです。

---------------------------------------------------------------------

Copyright(C) Seiichi Yoshida (comet@aerith.net). All rights reserved.